Jefferson, NC

11:28 PM EDT on May 24, 2018 (GMT -0400)
Ashe County

Weather History for KGEV - January, 2004

Change the Weather History Date:

Sunday, January 11, 2004

  Actual Average Record
Temperature  
Mean Temperature 24 °F -  
Max Temperature 37 °F 40 °F 62 °F (1975)
Min Temperature 12 °F 19 °F -13 °F (1988)
Degree Days  
Heating Degree Days 40    
Moisture  
Dew Point 12 °F    
Average Humidity 62    
Maximum Humidity 85    
Minimum Humidity 46    
Precipitation  
Precipitation 0.00 in - - ()
Sea Level Pressure  
Sea Level Pressure 30.23 in    
Wind  
Wind Speed 7 mph (West)    
Max Wind Speed 21 mph    
Max Gust Speed 25 mph    
Visibility 10 miles    
Events      
Averages and records for this station are not official NWS values.
T = Trace of Precipitation, MM = Missing Value Source: NWS Daily Summary

Daily Weather History Graph

Daily Weather History Graph

Search for Another Location

Airport or City:

Astronomy

Jan. 11, 2004 Rise Set
Actual Time 7:37 AM EST 5:29 PM EST
Civil Twilight 7:09 AM EST 5:57 PM EST
Nautical Twilight 6:37 AM EST 6:29 PM EST
Astronomical Twilight 6:06 AM EST 7:00 PM EST
Moon 9:33 PM EST (1/11) 10:25 AM EST (1/11)
Length of Visible Light 10h 48m
Length of Day
9h 51m
Waning Gibbous, 84% of the Moon is Illuminated
Jan 11
Waning Gibbous
Jan 14
Last Quarter
Jan 21
New
Jan 29
First Quarter
Feb 6
Full

Hourly Weather History & Observations

Time (EST) Temp. Windchill Dew Point Humidity Pressure Visibility Wind Dir Wind Speed Gust Speed Precip Events Conditions
12:00 AM 17.6 °F 3.2 °F 8.6 °F 68% 30.21 in 10.0 mi WNW 15.0 mph 23.0 mph N/A   Clear
12:20 AM 17.6 °F 3.7 °F 8.6 °F 68% 30.22 in 10.0 mi WNW 13.8 mph 20.7 mph N/A   Clear
12:40 AM 17.6 °F 4.3 °F 8.6 °F 68% 30.21 in 10.0 mi WNW 12.7 mph 20.7 mph N/A   Clear
1:01 AM 17.6 °F 6.4 °F 8.6 °F 68% 30.22 in 10.0 mi WNW 9.2 mph - N/A   Clear
1:21 AM 17.6 °F 8.2 °F 8.6 °F 68% 30.21 in 10.0 mi West 6.9 mph - N/A   Clear
1:40 AM 15.8 °F - 6.8 °F 68% 30.21 in 10.0 mi Calm Calm - N/A   Clear
2:00 AM 15.8 °F 10.2 °F 8.6 °F 73% 30.22 in 10.0 mi South 3.5 mph - N/A   Clear
2:20 AM 17.6 °F 12.3 °F 6.8 °F 63% 30.23 in 10.0 mi West 3.5 mph - N/A   Clear
2:40 AM 15.8 °F - 8.6 °F 73% 30.22 in 10.0 mi Calm Calm - N/A   Clear
3:00 AM 15.8 °F 10.2 °F 8.6 °F 73% 30.23 in 10.0 mi WSW 3.5 mph - N/A   Clear
3:20 AM 15.8 °F - 8.6 °F 73% 30.24 in 10.0 mi Calm Calm - N/A   Clear
3:40 AM 15.8 °F - 8.6 °F 73% 30.23 in 10.0 mi Calm Calm - N/A   Clear
4:00 AM 15.8 °F - 8.6 °F 73% 30.23 in 10.0 mi Calm Calm - N/A   Clear
4:21 AM 15.8 °F - 8.6 °F 73% 30.23 in 10.0 mi Calm Calm - N/A   Clear
4:40 AM 12.2 °F - 8.6 °F 85% 30.23 in 10.0 mi Calm Calm - N/A   Clear
5:00 AM 15.8 °F - 8.6 °F 73% 30.24 in 10.0 mi Calm Calm - N/A   Clear
5:20 AM 12.2 °F - 8.6 °F 85% 30.24 in 10.0 mi Calm Calm - N/A   Clear
5:40 AM 12.2 °F - 8.6 °F 85% 30.24 in 10.0 mi Calm Calm - N/A   Clear
6:00 AM 14.0 °F - 8.6 °F 79% 30.24 in 10.0 mi Calm Calm - N/A   Clear
6:20 AM 12.2 °F - 8.6 °F 85% 30.25 in 10.0 mi Calm Calm - N/A   Clear
6:40 AM 15.8 °F - 8.6 °F 73% 30.25 in 10.0 mi Calm Calm - N/A   Clear
7:00 AM 15.8 °F - 8.6 °F 73% 30.25 in 10.0 mi Calm Calm - N/A   Clear
7:20 AM 15.8 °F - 8.6 °F 73% 30.27 in 10.0 mi Calm Calm - N/A   Clear
7:40 AM 12.2 °F - 6.8 °F 79% 30.26 in 10.0 mi Calm Calm - N/A   Clear
8:00 AM 19.4 °F 10.4 °F 5.0 °F 54% 30.27 in 10.0 mi West 6.9 mph - N/A   Clear
8:20 AM 21.2 °F 6.4 °F 3.2 °F 46% 30.26 in 10.0 mi West 18.4 mph 21.9 mph N/A   Clear
8:40 AM 21.2 °F 5.6 °F 3.2 °F 46% 30.26 in 10.0 mi West 20.7 mph 25.3 mph N/A   Clear
9:00 AM 21.2 °F 7.3 °F 5.0 °F 50% 30.27 in 10.0 mi WNW 16.1 mph 21.9 mph N/A   Clear
9:20 AM 21.2 °F 6.8 °F 5.0 °F 50% 30.27 in 10.0 mi West 17.3 mph 23.0 mph N/A   Clear
9:40 AM 24.8 °F 13.4 °F 6.8 °F 46% 30.27 in 10.0 mi West 12.7 mph 23.0 mph N/A   Clear
10:00 AM 24.8 °F 13.4 °F 8.6 °F 50% 30.27 in 10.0 mi West 12.7 mph 18.4 mph N/A   Clear
10:20 AM 26.6 °F 15.2 °F 10.4 °F 51% 30.27 in 10.0 mi West 13.8 mph 19.6 mph N/A   Clear
10:40 AM 26.6 °F 14.3 °F 8.6 °F 47% 30.28 in 10.0 mi West 16.1 mph 20.7 mph N/A   Clear
11:00 AM 30.2 °F 22.6 °F 12.2 °F 47% 30.27 in 10.0 mi West 8.1 mph 18.4 mph N/A   Clear
11:20 AM 30.2 °F 19.3 °F 12.2 °F 47% 30.27 in 10.0 mi West 15.0 mph 20.7 mph N/A   Clear
11:40 AM 30.2 °F 18.9 °F 12.2 °F 47% 30.26 in 10.0 mi West 16.1 mph 21.9 mph N/A   Clear
12:04 PM 30.2 °F 18.1 °F 15.8 °F 55% 30.25 in 10.0 mi West 18.4 mph 23.0 mph N/A   Clear
12:20 PM 32.0 °F 23.0 °F 17.6 °F 55% 30.25 in 10.0 mi West 11.5 mph 23.0 mph N/A   Clear
12:41 PM 32.0 °F 22.5 °F 19.4 °F 60% 30.24 in 10.0 mi West 12.7 mph 20.7 mph N/A   Clear
1:00 PM 35.6 °F 27.5 °F 21.2 °F 56% 30.23 in 10.0 mi West 11.5 mph 18.4 mph N/A   Clear
1:20 PM 35.6 °F 25.5 °F 21.2 °F 56% 30.22 in 10.0 mi WNW 17.3 mph 20.7 mph N/A   Clear
1:40 PM 35.6 °F 27.5 °F 21.2 °F 56% 30.21 in 10.0 mi WNW 11.5 mph - N/A   Clear
2:00 PM 35.6 °F 27.5 °F 21.2 °F 56% 30.20 in 10.0 mi West 11.5 mph 18.4 mph N/A   Clear
2:20 PM 37.4 °F 29.8 °F 21.2 °F 52% 30.21 in 10.0 mi West 11.5 mph 17.3 mph N/A   Clear
2:40 PM 37.4 °F 31.4 °F 21.2 °F 52% 30.22 in 10.0 mi West 8.1 mph 17.3 mph N/A   Clear
3:00 PM 37.4 °F 34.9 °F 21.2 °F 52% 30.21 in 10.0 mi WSW 3.5 mph - N/A   Clear
3:21 PM 35.6 °F 31.7 °F 19.4 °F 52% 30.21 in 10.0 mi ESE 4.6 mph - N/A   Clear
3:40 PM 35.6 °F 31.7 °F 17.6 °F 48% 30.21 in 10.0 mi SSE 4.6 mph - N/A   Clear
4:00 PM 35.6 °F 32.8 °F 19.4 °F 52% 30.22 in 10.0 mi SE 3.5 mph - N/A   Clear
4:20 PM 32.0 °F 26.4 °F 17.6 °F 55% 30.21 in 10.0 mi SSE 5.8 mph - N/A   Clear
4:41 PM 32.0 °F 28.7 °F 17.6 °F 55% 30.21 in 10.0 mi SSE 3.5 mph - N/A   Clear
5:00 PM 30.2 °F 26.7 °F 17.6 °F 60% 30.21 in 10.0 mi SSE 3.5 mph - N/A   Clear
5:20 PM 30.2 °F 25.4 °F 17.6 °F 60% 30.21 in 10.0 mi SSE 4.6 mph - N/A   Clear
5:41 PM 30.2 °F - 17.6 °F 60% 30.21 in 10.0 mi Calm Calm - N/A   Clear
6:00 PM 30.2 °F - 17.6 °F 60% 30.21 in 10.0 mi Calm Calm - N/A   Clear
6:20 PM 30.2 °F - 17.6 °F 60% 30.21 in 10.0 mi Calm Calm - N/A   Clear
6:40 PM 30.2 °F - 17.6 °F 60% 30.21 in 10.0 mi Calm Calm - N/A   Clear
7:00 PM 26.6 °F - 15.8 °F 64% 30.20 in 10.0 mi Calm Calm - N/A   Clear
7:23 PM 26.6 °F - 15.8 °F 64% 30.20 in 10.0 mi Calm Calm - N/A   Clear
7:40 PM 26.6 °F - 15.8 °F 64% 30.18 in 10.0 mi Calm Calm - N/A   Clear
8:00 PM 26.6 °F - 17.6 °F 69% 30.18 in 10.0 mi Calm Calm - N/A   Clear
8:20 PM 26.6 °F - 17.6 °F 69% 30.17 in 10.0 mi Calm Calm - N/A   Clear
8:40 PM 26.6 °F - 17.6 °F 69% 30.16 in 10.0 mi Calm Calm - N/A   Clear
9:00 PM 26.6 °F - 17.6 °F 69% 30.16 in 10.0 mi Calm Calm - N/A   Clear
9:20 PM 26.6 °F - 17.6 °F 69% 30.16 in 10.0 mi Calm Calm - N/A   Clear
9:40 PM 28.4 °F 24.6 °F 17.6 °F 64% 30.14 in 10.0 mi SE 3.5 mph - N/A   Clear
10:00 PM 30.2 °F 26.7 °F 19.4 °F 64% 30.13 in 10.0 mi SSE 3.5 mph - N/A   Clear
10:20 PM 30.2 °F 26.7 °F 19.4 °F 64% 30.12 in 10.0 mi SE 3.5 mph - N/A   Clear
10:40 PM 30.2 °F 25.4 °F 19.4 °F 64% 30.13 in 10.0 mi WSW 4.6 mph - N/A   Clear
11:00 PM 35.6 °F 29.9 °F 19.4 °F 52% 30.12 in 10.0 mi WSW 6.9 mph 18.4 mph N/A   Clear
11:21 PM 37.4 °F 28.2 °F 17.6 °F 45% 30.10 in 10.0 mi West 16.1 mph 25.3 mph N/A   Clear
11:40 PM 39.2 °F 29.6 °F 19.4 °F 45% 30.09 in 10.0 mi West 19.6 mph 33.4 mph N/A   Clear